DW9888 Weather Reports


time (UTC)temp
C
wind
direction
speed
KPH
gust
KPH
rain 1hr
cm
rain 24hr
cm
rain mn
cm
humidity
%
barometer
mb
20260507141526 10 162 0.0 0.0 0.00 0.00 0.00 93 1017.6
20260507140025 10 162 0.0 0.0 0.00 0.00 0.00 93 1017.7
20260507134526 9 147 0.0 0.0 0.00 0.00 0.00 93 1017.5
20260507133024 9 139 0.0 0.0 0.00 0.00 0.00 93 1017.5
20260507131525 9 141 0.0 0.0 0.00 0.00 0.00 92 1017.6
20260507130022 9 103 0.0 0.0 0.00 0.00 0.00 92 1017.3
20260507124524 9 92 0.0 0.0 0.00 0.00 0.00 92 1017.1
20260507123019 10 92 0.0 0.0 0.00 0.00 0.00 91 1017.2
20260507121518 10 91 0.0 0.0 0.00 0.00 0.00 91 1017.1
20260507120016 10 92 0.0 0.0 0.00 0.00 0.00 91 1017.1
20260507114515 10 92 0.0 0.0 0.00 0.00 0.00 91 1017.2
20260507113023 10 91 0.0 0.0 0.00 0.00 0.00 91 1017.1
20260507111518 10 90 0.0 0.0 0.00 0.00 0.00 91 1017.2
20260507110014 10 90 0.0 0.0 0.00 0.00 0.00 91 1017.2
20260507104512 10 91 0.0 0.0 0.00 0.00 0.00 91 1017.3
20260507103008 10 90 0.0 0.0 0.00 0.00 0.00 91 1017.5
20260507101507 10 91 0.0 0.0 0.00 0.00 0.00 91 1017.6
20260507100006 10 90 0.0 0.0 0.00 0.00 0.00 91 1017.6
20260507094504 10 90 0.0 0.0 0.00 0.00 0.00 91 1017.8
20260507093005 10 92 0.0 0.0 0.00 0.00 0.00 91 1017.9
20260507091501 11 92 0.0 0.0 0.00 0.00 0.00 91 1017.9
20260507090058 11 92 0.0 0.0 0.00 0.00 0.00 90 1018.0
20260507084558 11 91 0.0 0.0 0.00 0.00 0.00 90 1018.2
20260507083059 11 257 0.0 0.0 0.00 0.00 0.00 90 1018.3
20260507081553 11 257 0.0 0.0 0.00 0.00 0.00 90 1018.4
20260507080119 11 257 0.0 0.0 0.00 0.00 0.00 90 1018.5
20260507074558 11 257 0.0 0.0 0.00 0.00 0.00 90 1018.6
20260507073058 11 257 0.0 0.0 0.00 0.00 0.00 90 1018.6
20260507071559 12 257 0.0 0.0 0.00 0.00 0.00 90 1018.6
20260507070042 12 135 0.0 0.0 0.00 0.00 0.00 90 1018.7
20260507064546 12 135 0.0 0.0 0.00 0.00 0.00 89 1018.7
20260507063041 12 135 0.0 0.0 0.00 0.00 0.00 89 1018.9
20260507061541 12 135 0.0 0.0 0.00 0.00 0.00 89 1018.8
20260507060039 13 267 0.0 0.0 0.00 0.00 0.00 89 1018.8
20260507054546 13 267 0.0 0.0 0.00 0.00 0.00 88 1018.8
20260507053043 13 267 0.0 0.0 0.00 0.00 0.00 87 1018.8
20260507051538 13 267 0.0 0.0 0.00 0.00 0.00 86 1018.9
20260507050037 14 285 0.0 1.6 0.00 0.00 0.00 86 1018.7
20260507044536 14 274 0.0 0.0 0.00 0.00 0.00 84 1018.6
20260507043038 15 252 0.0 1.6 0.00 0.00 0.00 82 1018.6
20260507041536 15 283 0.0 4.8 0.00 0.00 0.00 80 1018.5
20260507040038 15 285 0.0 3.2 0.00 0.00 0.00 78 1018.5
20260507034535 15 291 0.0 4.8 0.00 0.00 0.00 77 1018.2
20260507033037 15 276 0.0 3.2 0.00 0.00 0.00 75 1018.1
20260507031533 16 290 0.0 6.4 0.00 0.00 0.00 72 1017.9
20260507030034 16 286 0.0 4.8 0.00 0.00 0.00 71 1018.0
20260507024535 16 273 3.2 8.0 0.00 0.00 0.00 70 1017.8
20260507023031 17 245 3.2 6.4 0.00 0.00 0.00 68 1017.7
20260507021530 17 281 4.8 8.0 0.00 0.00 0.00 67 1017.6
20260507020033 18 311 4.8 9.7 0.00 0.00 0.00 66 1017.4
20260507014528 18 289 4.8 11.3 0.00 0.00 0.00 67 1017.4
20260507013035 18 272 8.0 12.9 0.00 0.00 0.00 66 1017.5
20260507011536 18 282 6.4 14.5 0.00 0.00 0.00 66 1017.3
20260507010028 19 288 6.4 14.5 0.00 0.00 0.00 66 1017.3
20260507004525 19 273 6.4 14.5 0.00 0.00 0.00 63 1017.2
20260507003024 19 288 6.4 12.9 0.00 0.00 0.00 63 1017.2
20260507001523 19 255 4.8 17.7 0.00 0.00 0.00 63 1017.0
20260507000023 19 256 8.0 17.7 0.00 0.00 0.00 64 1016.9
20260506234530 20 310 6.4 17.7 0.00 0.00 0.00 63 1016.8
20260506233020 19 291 8.0 16.1 0.00 0.00 0.00 64 1016.8
20260506231519 20 267 9.7 17.7 0.00 0.00 0.00 63 1016.9
20260506230018 19 271 9.7 17.7 0.00 0.00 0.00 63 1017.0
20260506224524 20 279 9.7 20.9 0.00 0.00 0.00 62 1017.1
20260506223014 20 283 8.0 20.9 0.00 0.00 0.00 63 1017.2
20260506221513 20 295 8.0 19.3 0.00 0.00 0.00 61 1017.3
20260506220012 20 270 8.0 19.3 0.00 0.00 0.00 62 1017.4
20260506214509 20 319 9.7 20.9 0.00 0.00 0.00 62 1017.6
20260506213011 20 293 8.0 20.9 0.00 0.00 0.00 61 1017.7
20260506211506 20 299 8.0 24.1 0.00 0.00 0.00 62 1017.6
20260506210005 20 267 11.3 19.3 0.00 0.00 0.00 62 1017.8
20260506204506 20 287 9.7 25.7 0.00 0.00 0.00 62 1017.8
20260506203004 21 300 9.7 20.9 0.00 0.00 0.00 59 1017.8
20260506201503 21 305 9.7 20.9 0.00 0.00 0.00 57 1017.8
20260506200003 21 287 8.0 20.9 0.00 0.00 0.00 56 1018.0
20260506194600 21 288 8.0 16.1 0.00 0.00 0.00 55 1018.0
20260506193056 21 269 4.8 12.9 0.00 0.00 0.00 55 1018.3
20260506191559 20 284 8.0 14.5 0.00 0.00 0.00 57 1018.4
20260506190055 19 193 6.4 16.1 0.00 0.00 0.00 57 1018.6
20260506184557 19 287 6.4 14.5 0.00 0.00 0.00 59 1018.9
20260506183047 18 284 4.8 9.7 0.00 0.00 0.00 60 1019.1
20260506181545 18 253 4.8 11.3 0.00 0.00 0.00 61 1019.2
20260506180045 17 207 1.6 12.9 0.00 0.00 0.00 64 1019.4
20260506174540 17 257 8.0 12.9 0.00 0.00 0.00 64 1019.6
20260506173047 16 195 1.6 12.9 0.00 0.00 0.00 67 1019.6
20260506171538 16 197 1.6 9.7 0.00 0.00 0.00 67 1019.7
20260506170033 16 233 0.0 9.7 0.00 0.00 0.00 69 1019.8
20260506164531 15 316 1.6 8.0 0.00 0.00 0.00 71 1019.9
20260506163044 15 197 0.0 8.0 0.00 0.00 0.00 70 1019.8
20260506161527 14 197 0.0 6.4 0.00 0.00 0.00 72 1019.7
20260506160023 14 195 0.0 6.4 0.00 0.00 0.00 75 1019.8
20260506154530 14 191 0.0 1.6 0.00 0.00 0.00 77 1019.8
20260506153018 13 189 0.0 3.2 0.00 0.00 0.00 80 1019.8
20260506151515 13 184 0.0 0.0 0.00 0.00 0.00 83 1019.8
20260506150013 12 142 0.0 0.0 0.00 0.00 0.00 88 1019.8
20260506144511 10 142 0.0 0.0 0.00 0.03 0.00 91 1019.8
20260506143011 8 142 0.0 0.0 0.00 0.03 0.00 91 1019.7